QPF
0.00 0.00 0.00 0.00 0.00 0.00 0.00 0.00 0.00 0.00 0.00 0.00 0.00 0.00 0.00 0.00 0.00 0.00 0.00 0.00 0.00 0.00 0.00 0.00 0.00 0.00 0.00 0.00 0.00 0.00 0.00 0.00 0.00 0.00 0.00 0.00 0.00 0.00 0.00 0.00 0.00 0.01 0.01 0.01 0.00 0.00 0.01 0.01 0.01
0.00 0.00 0.00 0.00 0.00 0.00 0.00 0.00 0.00 0.00 0.00 0.00 0.00 0.00 0.00 0.00 0.00 0.00 0.00 0.00 0.00 0.00 0.00 0.00 0.00 0.00 0.00 0.00 0.00 0.00 0.00 0.00 0.00 0.00 0.00 0.00 0.00 0.00 0.00 0.00 0.01 0.01 0.02 0.02 0.02 0.02 0.02 0.02 0.01
0.00 0.00 0.00 0.00 0.00 0.00 0.00 0.00 0.00 0.00 0.00 0.00 0.00 0.00 0.00 0.00 0.00 0.00 0.00 0.00 0.00 0.00 0.00 0.00 0.00 0.00 0.00 0.00 0.00 0.00 0.00 0.00 0.00 0.00 0.00 0.00 0.00 0.00 0.00 0.00 0.01 0.01 0.01 0.02 0.02 0.01 0.01 0.01 0.00
0.00 0.00 0.00 0.00 0.00 0.00 0.00 0.00 0.00 0.00 0.00 0.00 0.00 0.00 0.00 0.00 0.00 0.00 0.00 0.00 0.00 0.00 0.00 0.00 0.00 0.00 0.00 0.00 0.00 0.00 0.00 0.00 0.00 0.00 0.00 0.00 0.00 0.00 0.00 0.00 0.01 0.01 0.01 0.01 0.01 0.01 0.00 0.00 0.00
0.00 0.00 0.00 0.00 0.00 0.00 0.00 0.00 0.00 0.00 0.00 0.00 0.00 0.00 0.00 0.00 0.00 0.00 0.00 0.00 0.00 0.00 0.00 0.00 0.00 0.00 0.00 0.00 0.00 0.00 0.00 0.00 0.00 0.00 0.00 0.00 0.00 0.00 0.00 0.01 0.01 0.01 0.00 0.00 0.00 0.00 0.00 0.00 0.00
0.00 0.00 0.00 0.00 0.00 0.00 0.00 0.00 0.00 0.00 0.00 0.00 0.00 0.00 0.00 0.00 0.00 0.00 0.00 0.00 0.00 0.00 0.00 0.00 0.00 0.00 0.00 0.00 0.00 0.00 0.00 0.00 0.00 0.00 0.00 0.00 0.00 0.00 0.00 0.01 0.01 0.01 0.00 0.00 0.00 0.00 0.00 0.00 0.00
0.00 0.00 0.00 0.00 0.00 0.00 0.00 0.00 0.00 0.00 0.00 0.00 0.00 0.00 0.00 0.00 0.00 0.00 0.00 0.00 0.00 0.00 0.00 0.00 0.00 0.00 0.00 0.00 0.00 0.00 0.00 0.00 0.00 0.00 0.00 0.00 0.00 0.00 0.00 0.01 0.01 0.01 0.01 0.00 0.00 0.00 0.00 0.00 0.00
0.00 0.00 0.00 0.00 0.00 0.00 0.00 0.00 0.00 0.00 0.00 0.00 0.00 0.00 0.00 0.00 0.00 0.00 0.00 0.00 0.00 0.00 0.00 0.00 0.00 0.00 0.00 0.00 0.00 0.00 0.00 0.00 0.00 0.00 0.00 0.00 0.00 0.00 0.00 0.00 0.00 0.01 0.01 0.01 0.01 0.00 0.00 0.00 0.00
0.00 0.00 0.00 0.00 0.00 0.00 0.00 0.00 0.00 0.00 0.00 0.00 0.00 0.00 0.00 0.00 0.00 0.00 0.00 0.00 0.00 0.00 0.00 0.00 0.00 0.00 0.00 0.00 0.00 0.00 0.00 0.00 0.00 0.00 0.00 0.00 0.00 0.00 0.00 0.00 0.00 0.00 0.01 0.01 0.01 0.00 0.00 0.00 0.00
0.00 0.00 0.00 0.00 0.00 0.00 0.00 0.00 0.00 0.00 0.00 0.00 0.00 0.00 0.00 0.00 0.00 0.00 0.00 0.00 0.00 0.00 0.00 0.00 0.00 0.00 0.00 0.00 0.00 0.01 0.01 0.01 0.01 0.01 0.01 0.01 0.00 0.00 0.00 0.00 0.00 0.01 0.01 0.01 0.00 0.00 0.00 0.00 0.00
0.00 0.00 0.00 0.00 0.00 0.00 0.00 0.00 0.00 0.00 0.00 0.00 0.00 0.00 0.00 0.00 0.00 0.00 0.00 0.00 0.00 0.00 0.00 0.00 0.00 0.00 0.00 0.00 0.00 0.00 0.01 0.02 0.03 0.03 0.04 0.06 0.05 0.02 0.00 0.00 0.00 0.01 0.01 0.00 0.00 0.00 0.00 0.00 0.00
0.00 0.00 0.00 0.00 0.00 0.00 0.00 0.00 0.00 0.00 0.00 0.00 0.00 0.00 0.00 0.00 0.00 0.00 0.00 0.00 0.00 0.00 0.00 0.00 0.00 0.00 0.00 0.00 0.00 0.00 0.00 0.02 0.04 0.06 0.08 0.09 0.09 0.06 0.03 0.02 0.01 0.01 0.00 0.00 0.00 0.00 0.00 0.00 0.00
0.00 0.00 0.00 0.00 0.00 0.00 0.00 0.00 0.00 0.00 0.00 0.00 0.00 0.00 0.00 0.00 0.00 0.00 0.00 0.00 0.00 0.00 0.00 0.00 0.00 0.00 0.00 0.00 0.00 0.00 0.00 0.01 0.02 0.02 0.03 0.04 0.04 0.04 0.05 0.04 0.03 0.01 0.01 0.00 0.00 0.00 0.00 0.00 0.00
0.00 0.00 0.00 0.00 0.00 0.00 0.00 0.00 0.00 0.00 0.00 0.00 0.00 0.00 0.00 0.00 0.00 0.00 0.00 0.00 0.00 0.00 0.00 0.00 0.00 0.00 0.00 0.00 0.00 0.00 0.00 0.00 0.00 0.01 0.01 0.01 0.01 0.01 0.01 0.01 0.01 0.00 0.00 0.00 0.00 0.00 0.00 0.00 0.00
0.00 0.00 0.00 0.00 0.00 0.00 0.00 0.00 0.00 0.00 0.00 0.00 0.00 0.00 0.00 0.00 0.00 0.00 0.00 0.00 0.00 0.00 0.00 0.00 0.00 0.00 0.00 0.00 0.00 0.00 0.00 0.00 0.00 0.00 0.00 0.00 0.00 0.00 0.00 0.00 0.00 0.00 0.00 0.00 0.00 0.00 0.00 0.00 0.00
0.00 0.00 0.00 0.00 0.00 0.00 0.00 0.00 0.00 0.00 0.00 0.00 0.00 0.00 0.00 0.00 0.00 0.00 0.00 0.00 0.00 0.00 0.00 0.00 0.00 0.00 0.00 0.00 0.00 0.00 0.00 0.00 0.00 0.00 0.00 0.00 0.00 0.00 0.00 0.00 0.00 0.00 0.00 0.00 0.00 0.00 0.00 0.00 0.01
0.00 0.00 0.00 0.00 0.00 0.00 0.00 0.00 0.00 0.00 0.00 0.00 0.00 0.00 0.00 0.00 0.00 0.00 0.00 0.00 0.00 0.00 0.00 0.00 0.00 0.00 0.00 0.00 0.00 0.00 0.00 0.00 0.00 0.00 0.00 0.00 0.00 0.00 0.00 0.00 0.00 0.00 0.01 0.01 0.01 0.00 0.00 0.01 0.01
0.00 0.00 0.00 0.00 0.00 0.00 0.00 0.00 0.00 0.00 0.00 0.00 0.00 0.00 0.00 0.00 0.00 0.00 0.00 0.00 0.00 0.00 0.00 0.00 0.00 0.00 0.00 0.00 0.00 0.00 0.00 0.00 0.00 0.00 0.00 0.00 0.00 0.00 0.00 0.00 0.00 0.00 0.01 0.01 0.01 0.01 0.01 0.01 0.01
0.00 0.00 0.00 0.00 0.00 0.00 0.00 0.00 0.00 0.00 0.00 0.00 0.00 0.00 0.00 0.00 0.00 0.00 0.00 0.00 0.00 0.00 0.00 0.00 0.00 0.00 0.00 0.00 0.00 0.00 0.00 0.00 0.00 0.00 0.00 0.00 0.00 0.00 0.00 0.00 0.00 0.00 0.00 0.01 0.01 0.01 0.01 0.01 0.01
0.00 0.00 0.00 0.00 0.00 0.00 0.00 0.00 0.00 0.00 0.00 0.00 0.00 0.00 0.00 0.00 0.00 0.00 0.00 0.00 0.00 0.00 0.00 0.00 0.00 0.00 0.00 0.00 0.00 0.00 0.00 0.00 0.00 0.00 0.00 0.00 0.00 0.00 0.00 0.00 0.00 0.00 0.00 0.00 0.00 0.00 0.00 0.00 0.00
0.00 0.00 0.00 0.00 0.00 0.00 0.00 0.00 0.00 0.00 0.00 0.00 0.00 0.00 0.00 0.00 0.00 0.00 0.00 0.00 0.00 0.00 0.00 0.00 0.00 0.00 0.00 0.00 0.00 0.00 0.00 0.00 0.00 0.00 0.00 0.00 0.00 0.00 0.00 0.00 0.00 0.00 0.00 0.00 0.00 0.00 0.00 0.00 0.00
0.00 0.00 0.00 0.00 0.00 0.00 0.00 0.00 0.00 0.00 0.00 0.00 0.00 0.00 0.00 0.00 0.00 0.00 0.00 0.00 0.00 0.00 0.00 0.00 0.00 0.00 0.00 0.00 0.00 0.00 0.00 0.00 0.00 0.00 0.00 0.00 0.00 0.00 0.00 0.00 0.00 0.00 0.00 0.00 0.00 0.00 0.00 0.00 0.00
0.00 0.00 0.00 0.00 0.00 0.00 0.00 0.00 0.00 0.00 0.00 0.00 0.00 0.00 0.00 0.00 0.00 0.00 0.00 0.00 0.00 0.00 0.00 0.00 0.00 0.00 0.00 0.00 0.00 0.00 0.00 0.00 0.00 0.00 0.00 0.00 0.00 0.00 0.00 0.00 0.00 0.01 0.01 0.01 0.01 0.00 0.00 0.00 0.00
0.00 0.00 0.00 0.00 0.00 0.00 0.00 0.00 0.00 0.00 0.00 0.00 0.00 0.00 0.00 0.00 0.00 0.00 0.00 0.00 0.00 0.00 0.00 0.00 0.00 0.00 0.00 0.00 0.00 0.00 0.00 0.00 0.00 0.00 0.00 0.00 0.00 0.00 0.00 0.00 0.01 0.01 0.01 0.01 0.01 0.01 0.01 0.00 0.00
0.00 0.00 0.00 0.00 0.00 0.00 0.00 0.00 0.00 0.00 0.00 0.00 0.00 0.00 0.00 0.00 0.00 0.00 0.00 0.00 0.00 0.00 0.00 0.00 0.00 0.00 0.00 0.00 0.00 0.00 0.00 0.00 0.00 0.00 0.00 0.00 0.00 0.01 0.01 0.01 0.02 0.02 0.02 0.02 0.02 0.02 0.01 0.01 0.00
0.00 0.00 0.00 0.00 0.00 0.00 0.00 0.00 0.00 0.00 0.00 0.00 0.00 0.00 0.00 0.00 0.00 0.00 0.00 0.00 0.00 0.00 0.00 0.00 0.00 0.00 0.00 0.00 0.00 0.00 0.00 0.00 0.00 0.00 0.00 0.00 0.00 0.01 0.01 0.02 0.02 0.02 0.03 0.03 0.02 0.01 0.01 0.01 0.01
0.00 0.00 0.00 0.00 0.00 0.00 0.00 0.00 0.00 0.00 0.00 0.00 0.00 0.00 0.00 0.00 0.00 0.00 0.00 0.00 0.00 0.00 0.00 0.00 0.00 0.00 0.00 0.00 0.00 0.00 0.00 0.00 0.00 0.00 0.00 0.00 0.00 0.01 0.01 0.02 0.04 0.05 0.04 0.03 0.02 0.01 0.01 0.00 0.00
0.00 0.00 0.00 0.00 0.00 0.00 0.00 0.00 0.00 0.00 0.00 0.00 0.00 0.00 0.00 0.00 0.00 0.00 0.00 0.00 0.00 0.00 0.00 0.00 0.00 0.00 0.00 0.00 0.00 0.00 0.00 0.00 0.00 0.00 0.00 0.00 0.00 0.01 0.01 0.03 0.05 0.07 0.08 0.06 0.04 0.02 0.00 0.00 0.00
0.00 0.00 0.00 0.00 0.00 0.00 0.00 0.00 0.00 0.00 0.00 0.00 0.00 0.00 0.00 0.00 0.00 0.00 0.00 0.00 0.00 0.00 0.00 0.00 0.00 0.00 0.00 0.00 0.00 0.00 0.00 0.00 0.00 0.00 0.00 0.00 0.01 0.02 0.03 0.03 0.04 0.06 0.07 0.07 0.05 0.03 0.01 0.00 0.00
0.00 0.00 0.00 0.00 0.00 0.00 0.00 0.00 0.00 0.00 0.00 0.00 0.00 0.00 0.00 0.00 0.00 0.00 0.00 0.00 0.00 0.00 0.00 0.00 0.01 0.00 0.00 0.00 0.00 0.00 0.00 0.00 0.00 0.00 0.01 0.02 0.03 0.04 0.06 0.06 0.07 0.08 0.07 0.06 0.05 0.04 0.04 0.02 0.01
MSLP
1012.76 1013.57 1014.54 1015.50 1016.27 1016.73 1016.80 1016.48 1015.88 1015.12 1014.38 1013.77 1013.40 1013.26 1013.31 1013.44 1013.55 1013.55 1013.38 1013.07 1012.67 1012.26 1011.93 1011.76 1011.76 1011.91 1012.15 1012.42 1012.64 1012.80 1012.86 1012.87 1012.86 1012.88 1012.94 1013.06 1013.20 1013.35 1013.46 1013.50 1013.47 1013.39 1013.29 1013.21 1013.18 1013.21 1013.30 1013.43 1013.55
1013.30 1014.25 1015.28 1016.20 1016.85 1017.12 1016.95 1016.39 1015.57 1014.64 1013.78 1013.12 1012.72 1012.59 1012.65 1012.80 1012.92 1012.92 1012.77 1012.48 1012.12 1011.78 1011.54 1011.45 1011.54 1011.77 1012.08 1012.39 1012.65 1012.83 1012.91 1012.93 1012.93 1012.95 1013.01 1013.12 1013.25 1013.37 1013.45 1013.45 1013.39 1013.28 1013.15 1013.06 1013.03 1013.06 1013.16 1013.28 1013.41
1013.97 1015.00 1016.03 1016.87 1017.36 1017.41 1017.03 1016.27 1015.29 1014.26 1013.34 1012.66 1012.26 1012.13 1012.19 1012.32 1012.40 1012.37 1012.20 1011.92 1011.59 1011.30 1011.15 1011.16 1011.35 1011.66 1012.04 1012.41 1012.70 1012.90 1012.99 1013.01 1013.01 1013.02 1013.07 1013.16 1013.27 1013.35 1013.39 1013.36 1013.26 1013.13 1013.00 1012.91 1012.89 1012.93 1013.03 1013.17 1013.30
1014.73 1015.79 1016.76 1017.46 1017.77 1017.63 1017.07 1016.19 1015.13 1014.07 1013.17 1012.52 1012.15 1012.03 1012.05 1012.13 1012.14 1012.04 1011.82 1011.51 1011.19 1010.96 1010.87 1010.97 1011.24 1011.63 1012.06 1012.46 1012.78 1012.97 1013.07 1013.08 1013.07 1013.07 1013.11 1013.17 1013.24 1013.30 1013.30 1013.25 1013.14 1013.01 1012.89 1012.81 1012.80 1012.85 1012.97 1013.11 1013.24
1015.52 1016.53 1017.39 1017.93 1018.07 1017.78 1017.11 1016.18 1015.14 1014.15 1013.34 1012.77 1012.46 1012.34 1012.33 1012.33 1012.24 1012.04 1011.74 1011.39 1011.07 1010.86 1010.82 1010.97 1011.29 1011.71 1012.15 1012.55 1012.85 1013.03 1013.10 1013.10 1013.08 1013.07 1013.09 1013.14 1013.20 1013.23 1013.22 1013.16 1013.05 1012.93 1012.83 1012.77 1012.78 1012.85 1012.98 1013.12 1013.24
1016.24 1017.15 1017.85 1018.23 1018.22 1017.83 1017.14 1016.26 1015.33 1014.50 1013.85 1013.42 1013.19 1013.09 1013.04 1012.95 1012.75 1012.44 1012.05 1011.64 1011.30 1011.09 1011.06 1011.22 1011.53 1011.92 1012.32 1012.66 1012.90 1013.02 1013.06 1013.04 1013.01 1013.00 1013.01 1013.06 1013.12 1013.15 1013.14 1013.08 1012.99 1012.89 1012.82 1012.79 1012.82 1012.91 1013.04 1013.17 1013.28
1016.79 1017.56 1018.09 1018.30 1018.19 1017.77 1017.14 1016.40 1015.68 1015.08 1014.65 1014.39 1014.26 1014.20 1014.11 1013.93 1013.64 1013.23 1012.75 1012.29 1011.91 1011.68 1011.62 1011.73 1011.97 1012.27 1012.56 1012.79 1012.92 1012.96 1012.94 1012.89 1012.85 1012.84 1012.88 1012.94 1013.00 1013.05 1013.05 1013.01 1012.94 1012.88 1012.83 1012.83 1012.88 1012.97 1013.09 1013.21 1013.30
1017.11 1017.71 1018.07 1018.15 1017.97 1017.59 1017.10 1016.58 1016.13 1015.81 1015.63 1015.57 1015.56 1015.53 1015.42 1015.17 1014.79 1014.30 1013.76 1013.26 1012.84 1012.58 1012.47 1012.49 1012.61 1012.76 1012.88 1012.95 1012.94 1012.87 1012.77 1012.69 1012.64 1012.64 1012.70 1012.78 1012.86 1012.92 1012.94 1012.92 1012.87 1012.83 1012.81 1012.83 1012.89 1012.99 1013.10 1013.20 1013.26
1017.18 1017.60 1017.80 1017.79 1017.61 1017.33 1017.03 1016.78 1016.63 1016.61 1016.70 1016.82 1016.93 1016.94 1016.81 1016.52 1016.08 1015.54 1014.98 1014.45 1014.02 1013.71 1013.53 1013.44 1013.40 1013.37 1013.29 1013.16 1012.99 1012.79 1012.61 1012.48 1012.43 1012.44 1012.51 1012.61 1012.70 1012.77 1012.79 1012.78 1012.75 1012.72 1012.72 1012.76 1012.83 1012.92 1013.02 1013.10 1013.14
1017.05 1017.30 1017.38 1017.32 1017.18 1017.04 1016.96 1017.00 1017.16 1017.43 1017.75 1018.05 1018.25 1018.30 1018.16 1017.84 1017.37 1016.82 1016.25 1015.74 1015.31 1014.97 1014.72 1014.51 1014.31 1014.07 1013.78 1013.45 1013.11 1012.78 1012.52 1012.34 1012.27 1012.28 1012.36 1012.46 1012.55 1012.60 1012.61 1012.59 1012.56 1012.53 1012.54 1012.59 1012.67 1012.77 1012.85 1012.91 1012.92
1016.81 1016.93 1016.92 1016.84 1016.78 1016.80 1016.96 1017.27 1017.72 1018.24 1018.75 1019.18 1019.44 1019.51 1019.35 1019.01 1018.54 1018.01 1017.48 1017.00 1016.59 1016.25 1015.94 1015.62 1015.26 1014.84 1014.36 1013.85 1013.35 1012.90 1012.56 1012.34 1012.24 1012.24 1012.29 1012.36 1012.41 1012.43 1012.40 1012.35 1012.30 1012.28 1012.29 1012.35 1012.44 1012.53 1012.61 1012.65 1012.65
1016.60 1016.61 1016.55 1016.49 1016.53 1016.72 1017.10 1017.65 1018.32 1019.03 1019.68 1020.18 1020.47 1020.52 1020.34 1019.99 1019.53 1019.03 1018.56 1018.14 1017.78 1017.44 1017.10 1016.70 1016.22 1015.64 1015.01 1014.35 1013.72 1013.19 1012.78 1012.51 1012.37 1012.33 1012.34 1012.35 1012.34 1012.28 1012.20 1012.10 1012.02 1011.98 1012.00 1012.07 1012.16 1012.27 1012.34 1012.37 1012.35
1016.56 1016.50 1016.42 1016.40 1016.54 1016.88 1017.44 1018.17 1019.00 1019.83 1020.54 1021.06 1021.33 1021.34 1021.13 1020.76 1020.32 1019.87 1019.46 1019.11 1018.80 1018.48 1018.12 1017.68 1017.11 1016.44 1015.69 1014.94 1014.24 1013.64 1013.18 1012.87 1012.69 1012.58 1012.52 1012.44 1012.33 1012.18 1012.01 1011.85 1011.73 1011.68 1011.69 1011.77 1011.89 1012.00 1012.08 1012.10 1012.06
1016.77 1016.68 1016.60 1016.64 1016.86 1017.32 1018.01 1018.86 1019.78 1020.65 1021.37 1021.85 1022.07 1022.02 1021.76 1021.38 1020.94 1020.53 1020.18 1019.88 1019.62 1019.34 1018.98 1018.50 1017.89 1017.17 1016.38 1015.59 1014.86 1014.24 1013.76 1013.41 1013.17 1012.98 1012.81 1012.62 1012.39 1012.13 1011.86 1011.63 1011.46 1011.39 1011.41 1011.50 1011.63 1011.76 1011.84 1011.85 1011.80
1017.28 1017.17 1017.11 1017.19 1017.49 1018.03 1018.79 1019.70 1020.65 1021.52 1022.19 1022.61 1022.74 1022.62 1022.32 1021.91 1021.47 1021.08 1020.76 1020.51 1020.27 1020.01 1019.65 1019.17 1018.55 1017.83 1017.04 1016.25 1015.53 1014.92 1014.43 1014.05 1013.75 1013.48 1013.20 1012.88 1012.52 1012.13 1011.76 1011.45 1011.23 1011.13 1011.14 1011.24 1011.39 1011.52 1011.61 1011.63 1011.56
1018.03 1017.92 1017.87 1017.99 1018.34 1018.93 1019.72 1020.64 1021.58 1022.40 1023.00 1023.34 1023.40 1023.22 1022.87 1022.43 1021.98 1021.60 1021.29 1021.04 1020.81 1020.54 1020.18 1019.70 1019.08 1018.37 1017.62 1016.88 1016.20 1015.61 1015.13 1014.73 1014.38 1014.02 1013.63 1013.17 1012.68 1012.17 1011.69 1011.29 1011.02 1010.89 1010.89 1010.98 1011.13 1011.28 1011.37 1011.38 1011.31
1018.92 1018.81 1018.78 1018.92 1019.29 1019.90 1020.70 1021.61 1022.50 1023.26 1023.80 1024.08 1024.08 1023.85 1023.46 1023.01 1022.55 1022.16 1021.83 1021.56 1021.30 1021.00 1020.61 1020.11 1019.50 1018.82 1018.11 1017.43 1016.80 1016.26 1015.80 1015.39 1014.99 1014.55 1014.04 1013.47 1012.85 1012.22 1011.64 1011.16 1010.83 1010.65 1010.62 1010.70 1010.84 1010.98 1011.08 1011.10 1011.03
1019.82 1019.72 1019.70 1019.85 1020.24 1020.85 1021.64 1022.52 1023.37 1024.08 1024.58 1024.81 1024.78 1024.53 1024.14 1023.68 1023.21 1022.80 1022.44 1022.11 1021.79 1021.43 1020.99 1020.46 1019.85 1019.19 1018.52 1017.89 1017.33 1016.83 1016.39 1015.97 1015.53 1015.02 1014.43 1013.75 1013.02 1012.29 1011.61 1011.05 1010.64 1010.40 1010.32 1010.37 1010.48 1010.62 1010.71 1010.74 1010.70
1020.62 1020.51 1020.50 1020.67 1021.07 1021.68 1022.46 1023.32 1024.14 1024.83 1025.30 1025.52 1025.49 1025.26 1024.89 1024.44 1023.97 1023.53 1023.12 1022.73 1022.33 1021.88 1021.37 1020.79 1020.16 1019.50 1018.87 1018.28 1017.76 1017.31 1016.89 1016.47 1016.00 1015.44 1014.77 1014.01 1013.19 1012.37 1011.60 1010.95 1010.46 1010.15 1010.00 1009.99 1010.07 1010.17 1010.27 1010.32 1010.31
1021.24 1021.12 1021.12 1021.31 1021.72 1022.35 1023.13 1023.98 1024.80 1025.48 1025.96 1026.20 1026.20 1026.01 1025.68 1025.26 1024.80 1024.34 1023.88 1023.42 1022.92 1022.39 1021.79 1021.14 1020.47 1019.80 1019.17 1018.62 1018.13 1017.70 1017.30 1016.88 1016.39 1015.79 1015.08 1014.26 1013.38 1012.48 1011.63 1010.89 1010.31 1009.91 1009.67 1009.58 1009.60 1009.67 1009.77 1009.84 1009.89
1021.65 1021.52 1021.54 1021.77 1022.22 1022.88 1023.68 1024.54 1025.36 1026.05 1026.55 1026.83 1026.88 1026.74 1026.45 1026.07 1025.63 1025.16 1024.66 1024.13 1023.55 1022.92 1022.24 1021.53 1020.81 1020.12 1019.48 1018.93 1018.46 1018.05 1017.66 1017.23 1016.73 1016.12 1015.37 1014.52 1013.58 1012.62 1011.69 1010.87 1010.20 1009.69 1009.35 1009.17 1009.12 1009.15 1009.24 1009.35 1009.46
1021.89 1021.77 1021.83 1022.10 1022.61 1023.32 1024.15 1025.04 1025.88 1026.58 1027.10 1027.40 1027.49 1027.39 1027.15 1026.80 1026.38 1025.91 1025.38 1024.80 1024.17 1023.47 1022.72 1021.95 1021.19 1020.47 1019.83 1019.27 1018.80 1018.39 1017.99 1017.56 1017.05 1016.42 1015.66 1014.77 1013.80 1012.79 1011.80 1010.89 1010.11 1009.50 1009.06 1008.78 1008.66 1008.65 1008.74 1008.88 1009.06
1022.06 1021.96 1022.07 1022.42 1022.99 1023.76 1024.64 1025.55 1026.39 1027.09 1027.61 1027.92 1028.02 1027.95 1027.73 1027.41 1027.00 1026.53 1025.99 1025.39 1024.72 1023.99 1023.20 1022.40 1021.61 1020.87 1020.21 1019.64 1019.16 1018.74 1018.33 1017.89 1017.36 1016.72 1015.93 1015.02 1014.01 1012.95 1011.90 1010.91 1010.04 1009.33 1008.79 1008.43 1008.24 1008.20 1008.29 1008.47 1008.71
1022.26 1022.19 1022.37 1022.80 1023.46 1024.29 1025.20 1026.12 1026.96 1027.63 1028.11 1028.39 1028.47 1028.38 1028.16 1027.84 1027.45 1026.98 1026.46 1025.86 1025.19 1024.45 1023.67 1022.86 1022.07 1021.32 1020.65 1020.07 1019.57 1019.12 1018.68 1018.21 1017.66 1016.98 1016.17 1015.23 1014.18 1013.07 1011.96 1010.90 1009.95 1009.15 1008.53 1008.10 1007.87 1007.81 1007.90 1008.11 1008.41
1022.55 1022.55 1022.81 1023.33 1024.07 1024.96 1025.90 1026.81 1027.60 1028.21 1028.62 1028.82 1028.84 1028.70 1028.45 1028.12 1027.72 1027.27 1026.77 1026.20 1025.56 1024.86 1024.10 1023.32 1022.55 1021.81 1021.14 1020.54 1020.01 1019.52 1019.04 1018.52 1017.91 1017.19 1016.33 1015.34 1014.25 1013.09 1011.92 1010.80 1009.79 1008.93 1008.26 1007.79 1007.53 1007.47 1007.58 1007.83 1008.16
1023.00 1023.08 1023.44 1024.05 1024.86 1025.78 1026.72 1027.59 1028.31 1028.83 1029.13 1029.22 1029.14 1028.93 1028.62 1028.26 1027.87 1027.44 1026.97 1026.45 1025.87 1025.23 1024.53 1023.80 1023.06 1022.35 1021.67 1021.05 1020.48 1019.94 1019.39 1018.79 1018.11 1017.32 1016.39 1015.34 1014.19 1012.98 1011.76 1010.60 1009.55 1008.66 1007.97 1007.50 1007.24 1007.20 1007.33 1007.61 1007.98
1023.63 1023.80 1024.25 1024.94 1025.80 1026.74 1027.65 1028.45 1029.06 1029.46 1029.62 1029.59 1029.40 1029.10 1028.74 1028.35 1027.95 1027.55 1027.13 1026.67 1026.17 1025.60 1024.98 1024.31 1023.61 1022.92 1022.24 1021.59 1020.96 1020.35 1019.71 1019.03 1018.25 1017.36 1016.35 1015.23 1014.01 1012.75 1011.50 1010.31 1009.25 1008.36 1007.68 1007.24 1007.02 1007.01 1007.18 1007.49 1007.88
1024.42 1024.68 1025.22 1025.96 1026.84 1027.76 1028.61 1029.31 1029.80 1030.06 1030.09 1029.93 1029.64 1029.26 1028.85 1028.44 1028.06 1027.70 1027.34 1026.95 1026.53 1026.04 1025.49 1024.88 1024.22 1023.53 1022.84 1022.15 1021.46 1020.76 1020.02 1019.23 1018.34 1017.35 1016.24 1015.04 1013.77 1012.46 1011.19 1010.00 1008.95 1008.09 1007.46 1007.06 1006.90 1006.94 1007.16 1007.50 1007.90
1025.34 1025.68 1026.28 1027.04 1027.90 1028.76 1029.51 1030.09 1030.46 1030.58 1030.49 1030.24 1029.87 1029.44 1029.02 1028.62 1028.28 1027.96 1027.67 1027.36 1027.00 1026.59 1026.09 1025.52 1024.88 1024.19 1023.47 1022.73 1021.96 1021.16 1020.32 1019.42 1018.42 1017.33 1016.14 1014.87 1013.55 1012.22 1010.94 1009.77 1008.76 1007.96 1007.39 1007.06 1006.96 1007.06 1007.32 1007.68 1008.08
1026.34 1026.75 1027.36 1028.11 1028.90 1029.66 1030.29 1030.75 1030.98 1031.00 1030.82 1030.50 1030.10 1029.68 1029.28 1028.93 1028.64 1028.39 1028.17 1027.92 1027.63 1027.26 1026.80 1026.24 1025.60 1024.89 1024.12 1023.32 1022.47 1021.59 1020.65 1019.64 1018.56 1017.39 1016.14 1014.82 1013.48 1012.15 1010.89 1009.76 1008.82 1008.08 1007.58 1007.33 1007.29 1007.43 1007.71 1008.07 1008.45
Thickness
5740 5741 5739 5728 5707 5689 5692 5704 5721 5732 5742 5753 5757 5749 5741 5737 5732 5728 5756 5765 5763 5760 5758 5756 5754 5751 5749 5747 5746 5744 5742 5739 5737 5736 5736 5736 5735 5734 5735 5736 5736 5736 5736 5736 5736 5735 5734 5734 5733
5737 5737 5728 5712 5690 5677 5692 5710 5720 5734 5746 5754 5752 5744 5740 5740 5747 5749 5756 5760 5761 5758 5755 5753 5751 5749 5746 5744 5741 5739 5737 5735 5733 5732 5731 5731 5730 5730 5730 5731 5732 5732 5732 5732 5731 5731 5730 5730 5730
5736 5732 5713 5697 5688 5684 5699 5716 5724 5734 5744 5748 5744 5742 5737 5736 5743 5747 5756 5759 5756 5753 5751 5750 5748 5745 5742 5740 5737 5734 5732 5730 5728 5727 5727 5726 5725 5725 5725 5726 5727 5728 5727 5727 5727 5726 5726 5726 5726
5727 5716 5705 5690 5691 5697 5708 5718 5725 5727 5733 5740 5740 5731 5733 5739 5744 5749 5754 5754 5750 5747 5745 5744 5742 5740 5736 5733 5730 5728 5726 5725 5723 5722 5721 5721 5720 5719 5719 5720 5722 5722 5722 5722 5722 5721 5721 5721 5722
5720 5703 5690 5679 5687 5702 5711 5718 5723 5718 5721 5726 5731 5721 5723 5736 5744 5748 5749 5748 5745 5742 5739 5738 5736 5733 5731 5727 5724 5722 5720 5719 5718 5717 5716 5716 5715 5714 5714 5714 5715 5716 5716 5717 5717 5717 5717 5717 5718
5704 5693 5675 5673 5684 5700 5708 5716 5719 5714 5716 5722 5721 5715 5716 5727 5734 5738 5740 5741 5740 5737 5734 5732 5729 5727 5725 5723 5719 5717 5715 5713 5713 5712 5711 5710 5710 5709 5709 5709 5709 5710 5710 5711 5711 5712 5712 5712 5713
5697 5684 5677 5680 5683 5692 5702 5713 5711 5709 5708 5710 5716 5707 5708 5717 5726 5732 5732 5730 5728 5726 5724 5722 5720 5717 5716 5714 5712 5710 5708 5707 5706 5706 5705 5704 5703 5703 5703 5703 5703 5703 5703 5704 5705 5706 5707 5707 5707
5699 5684 5680 5677 5683 5687 5698 5707 5709 5704 5698 5706 5706 5691 5689 5701 5717 5722 5721 5716 5713 5712 5709 5707 5707 5706 5705 5704 5702 5701 5700 5700 5699 5699 5698 5698 5697 5696 5696 5697 5697 5697 5697 5697 5698 5699 5700 5701 5701
5702 5676 5670 5682 5685 5687 5697 5698 5700 5701 5693 5689 5681 5676 5677 5692 5703 5703 5701 5698 5696 5695 5695 5695 5695 5696 5697 5696 5695 5693 5693 5693 5692 5692 5691 5690 5690 5690 5689 5690 5690 5690 5691 5692 5693 5694 5694 5695 5695
5690 5670 5682 5692 5693 5691 5693 5691 5691 5685 5676 5668 5668 5668 5675 5682 5683 5679 5676 5675 5676 5678 5681 5683 5684 5685 5688 5690 5689 5687 5686 5685 5685 5686 5685 5684 5684 5684 5683 5684 5684 5684 5685 5687 5687 5688 5688 5689 5690
5693 5682 5690 5696 5698 5697 5690 5683 5681 5676 5654 5651 5651 5653 5660 5664 5662 5659 5657 5657 5658 5661 5665 5669 5671 5673 5675 5678 5678 5678 5678 5678 5678 5679 5679 5679 5678 5678 5677 5677 5678 5679 5680 5680 5681 5681 5682 5684 5685
5696 5697 5700 5699 5701 5696 5685 5675 5663 5661 5647 5648 5648 5650 5652 5649 5644 5641 5640 5641 5644 5648 5650 5654 5657 5660 5662 5664 5665 5667 5668 5669 5670 5671 5672 5672 5671 5671 5672 5672 5673 5673 5673 5674 5674 5675 5676 5678 5680
5696 5696 5699 5698 5694 5686 5677 5666 5658 5645 5642 5641 5644 5646 5641 5636 5631 5629 5628 5629 5631 5633 5636 5640 5643 5645 5647 5650 5651 5654 5656 5658 5660 5661 5662 5663 5663 5664 5664 5666 5666 5667 5667 5667 5668 5669 5670 5672 5674
5696 5696 5694 5693 5687 5678 5665 5656 5649 5633 5632 5634 5635 5631 5627 5624 5621 5621 5619 5617 5616 5617 5620 5625 5628 5628 5631 5634 5635 5637 5639 5643 5647 5650 5651 5652 5653 5654 5655 5656 5658 5659 5660 5661 5662 5663 5664 5665 5667
5695 5689 5685 5686 5681 5671 5663 5640 5631 5626 5626 5625 5620 5618 5616 5614 5612 5608 5605 5603 5602 5603 5605 5609 5612 5613 5615 5617 5618 5621 5623 5625 5629 5632 5636 5639 5641 5643 5644 5644 5646 5649 5651 5653 5654 5655 5656 5657 5660
5684 5671 5665 5676 5679 5670 5652 5622 5622 5622 5623 5615 5608 5604 5604 5601 5598 5596 5595 5593 5592 5592 5592 5593 5595 5596 5598 5599 5600 5602 5605 5607 5610 5613 5618 5622 5626 5630 5632 5633 5634 5637 5639 5641 5643 5644 5646 5648 5650
5656 5653 5657 5665 5670 5664 5642 5619 5615 5615 5615 5605 5597 5593 5591 5589 5587 5584 5583 5581 5580 5579 5578 5579 5579 5580 5581 5583 5584 5584 5586 5588 5590 5593 5597 5602 5608 5614 5618 5621 5623 5624 5626 5629 5631 5633 5634 5636 5639
5647 5648 5649 5651 5657 5649 5627 5612 5606 5603 5600 5588 5583 5580 5579 5576 5572 5571 5569 5567 5566 5566 5565 5565 5566 5566 5567 5568 5569 5570 5569 5569 5570 5573 5575 5579 5586 5593 5600 5606 5609 5611 5613 5615 5618 5619 5621 5624 5627
5656 5651 5645 5650 5650 5638 5616 5602 5596 5591 5586 5578 5571 5565 5562 5559 5557 5556 5554 5552 5551 5551 5550 5549 5549 5550 5550 5551 5552 5552 5551 5551 5551 5552 5554 5558 5563 5570 5577 5587 5593 5596 5597 5601 5604 5606 5607 5609 5612
5650 5644 5638 5639 5641 5626 5601 5591 5586 5581 5574 5565 5557 5550 5546 5545 5543 5542 5539 5535 5531 5529 5526 5526 5524 5525 5525 5527 5528 5529 5529 5530 5531 5534 5537 5539 5543 5549 5556 5564 5574 5580 5582 5585 5588 5591 5592 5594 5597
5641 5638 5634 5630 5628 5618 5595 5582 5576 5567 5558 5550 5539 5534 5529 5528 5522 5520 5517 5512 5507 5503 5500 5499 5498 5499 5500 5502 5503 5504 5507 5508 5511 5514 5518 5521 5524 5530 5536 5545 5554 5563 5567 5570 5572 5575 5577 5578 5580
5631 5641 5636 5629 5617 5604 5602 5574 5565 5554 5540 5530 5518 5513 5508 5503 5499 5495 5490 5484 5480 5476 5474 5472 5472 5472 5473 5473 5473 5472 5474 5477 5480 5483 5489 5496 5501 5508 5514 5523 5533 5542 5550 5554 5556 5559 5561 5563 5563
5633 5637 5630 5624 5611 5600 5597 5571 5546 5543 5526 5511 5502 5496 5490 5483 5477 5471 5464 5457 5453 5449 5448 5447 5447 5447 5446 5444 5442 5441 5441 5443 5447 5452 5459 5467 5475 5482 5489 5497 5508 5519 5528 5534 5537 5540 5542 5545 5547
5629 5626 5626 5612 5600 5594 5594 5566 5524 5518 5508 5497 5487 5478 5469 5462 5455 5447 5439 5432 5427 5424 5422 5421 5421 5420 5418 5416 5414 5413 5413 5415 5419 5422 5427 5435 5445 5454 5462 5468 5480 5493 5504 5511 5516 5519 5522 5524 5528
5614 5604 5597 5593 5582 5582 5571 5537 5511 5504 5493 5480 5468 5456 5446 5437 5430 5422 5414 5408 5404 5400 5398 5396 5396 5396 5395 5393 5391 5390 5390 5391 5393 5395 5399 5405 5414 5423 5432 5438 5451 5466 5480 5487 5491 5496 5499 5502 5505
5602 5592 5576 5567 5561 5561 5555 5512 5493 5486 5474 5461 5448 5434 5423 5415 5407 5398 5389 5382 5378 5375 5373 5372 5373 5375 5375 5374 5373 5373 5373 5374 5374 5375 5376 5381 5388 5397 5405 5412 5425 5442 5456 5465 5468 5472 5476 5480 5483
5597 5584 5578 5557 5547 5536 5533 5501 5478 5471 5454 5440 5426 5415 5404 5396 5387 5377 5368 5359 5353 5350 5348 5348 5351 5354 5355 5356 5357 5359 5358 5358 5359 5360 5360 5363 5367 5373 5383 5391 5405 5422 5437 5446 5449 5452 5455 5459 5463
5593 5581 5556 5548 5535 5526 5521 5487 5458 5442 5431 5420 5407 5396 5388 5380 5371 5362 5352 5342 5335 5330 5327 5326 5328 5332 5335 5338 5340 5343 5344 5345 5346 5348 5350 5353 5355 5359 5366 5375 5388 5403 5419 5430 5434 5437 5439 5443 5446
5580 5566 5548 5529 5513 5493 5481 5460 5449 5429 5415 5399 5387 5378 5368 5361 5353 5345 5337 5328 5321 5315 5311 5311 5313 5317 5321 5324 5327 5330 5332 5334 5336 5338 5341 5343 5347 5351 5358 5365 5375 5388 5402 5414 5421 5423 5425 5428 5432
5569 5551 5532 5511 5494 5474 5449 5436 5428 5413 5398 5384 5372 5365 5354 5346 5338 5332 5324 5317 5310 5305 5301 5302 5303 5306 5308 5311 5314 5318 5320 5323 5326 5328 5331 5333 5337 5343 5351 5359 5367 5376 5386 5397 5405 5410 5412 5414 5417